046  
ASUS41 KBTV 300430  
RWRBTV  
VERMONT REGIONAL WEATHER ROUNDUP  
NATIONAL WEATHER SERVICE BURLINGTON VT  
1200 AM EDT SUN APR 30 2017  
 
NOTE: "FAIR" INDICATES FEW OR NO CLOUDS BELOW 12,000 FEET WITH NO  
SIGNIFICANT WEATHER AND/OR S TO VISIBILITY
.  
 
* THESE REPORTS ARE NOT UNDER NWS QUALITY CONTROL AND/OR DO NOT  
REPORT WEATHER SUCH AS PRECIPITATION AND FOG.
 
 
VTZ001>019-300500-  
_____VERMONT_____  
 
 
CITY SKY/WX TMP DP RH WIND PRES REMARKS
 
BURLINGTON CLEAR 45 26 47 N15G22 30.22R  
MONTPELIER CLEAR 43 27 53 N12 30.19R  
MORRISVILLE CLEAR 40 24 53 N12 30.21R  
ST. JOHNSBURY* N/A 43 26 51 MISG 30.15R  
LYNDONVILLE* FAIR 38 25 59 NW12 30.18R WCI 30  
MIDDLEBURY* FAIR 45 28 51 N16G22 30.19R  
RUTLAND* CLEAR 49 30 48 NW14G22 30.14R  
SPRINGFIELD CLEAR 56 32 40 MISG 30.10R  
HIGHGATE* FAIR 42 25 51 N9G17 30.23S  
NEWPORT* FAIR 37 25 60 NW12 30.19R WCI 30  
BENNINGTON CLEAR 50 35 56 W5 30.14R  
MT. MANSFIELD* N/A 27 N/A N/A NW33G48 N/A WCI 9  
 
_____LAKE CHAMPLAIN_____  
 
 
CITY SKY/WX TMP DP RH WIND PRES REMARKS
 
BURTON ISLAND* N/A 45 32 61 N3 N/A  
COLCHESTER RF* N/A 45 32 61 N18 N/A  
DIAMOND ISL* N/A 46 28 49 N28G36 N/A  
 

 
 
NYZ007-026>031-035-052-083-087-300500-  
_____NORTHERN NEW YORK_____  
 
 
CITY SKY/WX TMP DP RH WIND PRES REMARKS
 
PLATTSBURGH CLEAR 43 24 47 NW10 30.23R  
SARANAC LAKE CLEAR 37 25 61 VRB5 30.20R  
MASSENA CLEAR 41 24 51 N5 30.29R  
OGDENSBURG* FAIR 40 29 65 NE5 30.31R  
POTSDAM* CLEAR 39 27 60 CALM 30.28R  
WATERTOWN CLEAR 41 31 67 NE7 30.29R  
FT DRUM CLEAR 42 26 52 N5 30.27R  
ALBANY CLEAR 52 33 48 W16G25 30.17R  
GLENS FALLS CLEAR 55 35 47 NW7 30.15R  
 

 
NHZ002-005-011-300500-  
_____NEW HAMPSHIRE_____  
 
 
CITY SKY/WX TMP DP RH WIND PRES REMARKS
 
LEBANON CLEAR 54 32 43 N13G20 30.11R  
KEENE CLEAR 58 41 53 W7 30.08R  
MT WASHINGTON FOG 21 21 100 NW75G86 N/A VSB 1/8 WCI -4  
PLYMOUTH FAIR 50 29 45 NW13G18 30.11R  
WHITEFIELD CLEAR 41 24 51 NW8 30.14R  
 

 
 
_____REGIONAL QUEBEC LOCATIONS_____  
 
 
CITY SKY/WX TMP DP RH WIND PRES REMARKS
 
MONTREAL PTCLDY 41 21 45 N13G18 30.24R  
QUEBEC CITY MOCLDY 39 21 48 N16G23 30.18R WCI 30  
SHERBROOKE PTCLDY 37 25 60 NW8 30.17R WCI 31  
 
_____REGIONAL ONTARIO LOCATIONS_____  
 
 
CITY SKY/WX TMP DP RH WIND PRES REMARKS
 
OTTAWA CLEAR 41 23 48 N10 30.29R  
 
______KEY______  
VSB - VISIBILITY IN MILES  
WCI - WIND CHILL INDEX  
HX - HEAT INDEX  

 
NNNN  
 
 
CLICK HERE TO GO TO PREVIOUS BULLETINS.

The Nexlab VT Page
The Nexlab NY Page Main Text Page